Location: Rio de Janeiro
(22.9068°S, 43.1729°W)
Time: 13:46:26
(UTC-03:00)

Hubble Space Telescope - Pass Details

Date: 07 December 2023
Orbit: 515 x 519 km, 28.5° (Epoch: 02 March)

Event Time Altitude Azimuth Distance (km) Brightness Sun altitude
Exits shadow 01:49:52 10° 112° (ESE) 1,773 4.0 -35.2°
Enters shadow 02:54:42 -56° 264° (W) 11,222 7.5 -25.0°
Maximum altitude 03:27:11 52° 168° (SSE) 659 1.4 -19.2°
Sets 03:33:27 0° 85° (E) 2,645 5.1 -18.0°
